Epoch = 2008 Feb. 24.0 TT T = 2008 Feb. 20.4955 TT Peri. = 8.2860 e = 0.395943 Node = 335.2570 2000.0 q = 2.155746 AU Incl. = 10.7041 a = 3.568779 AU n = 0.1461923 P = 6.742 years
m1 = 14.0 + 5 logΔ + 10.0 log r